Simultaneous Nadir Overpasses (SNOs) Predictions

Prediction of SNOs between METOP-A and TERRA Satellite Orbit:

Table of predicted SNOs for the next 14.0 days since TLE Epoch: 4/6/2018
Index Date (METOP-A) Time (METOP-A) Lat,Lon (METOP-A) SZA (METOP-A ) Date (TERRA) Time (TERRA) Lat,Lon (TERRA) SZA (TERRA ) Distance(km) Time Diff (sec)
1 04/08/2018 10:23:48 81.41, 73.57 77.13 04/08/2018 10:23:52 81.40, 73.38 77.11 3.11 4
2 04/08/2018 11:14:29 -81.41,-119.12 102.89 04/08/2018 11:13:19 -81.40,-119.07 102.92 1.12 70
3 04/11/2018 05:58:07 81.41, 139.67 76.08 04/11/2018 05:58:11 81.40, 139.74 76.09 1.29 4
4 04/11/2018 06:48:47 -81.41, -52.58 103.89 04/11/2018 06:47:38 -81.40, -52.69 103.94 2.11 69
5 04/14/2018 01:32:24 81.41,-153.84 75.09 04/14/2018 01:32:29 81.40,-153.86 75.09 0.70 5
6 04/14/2018 02:23:04 -81.41, 13.95 104.87 04/14/2018 02:21:55 -81.42, 14.12 104.88 3.10 69
7 04/16/2018 21:06:42 81.41, -87.36 74.12 04/16/2018 21:06:48 81.40, -87.41 74.11 0.89 6
8 04/16/2018 21:57:23 -81.41, 80.06 105.89 04/16/2018 21:56:15 -81.40, 80.21 105.91 2.50 68
9 04/19/2018 16:41:00 81.41, -20.89 73.17 04/19/2018 16:41:07 81.41, -20.91 73.17 0.31 7




NCC Satellite Simultaneous Nadir Overpasses (SNOs) Prediction Service
